Flag for Poland Weather past 2 weeks in Rybnik, Poland

Now
64 °F

Sprinkles. Passing clouds.


Feels Like: 64 °F
Forecast: 66 / 75 °F
Wind: 5 mph from North

Location: Katowice Airport

Current Time: Aug 1, 2014 at 12:16:53 AM

Latest Report: Aug 1, 2014 at 12:00 AM


Visibility: N/A

Pressure: 29.95 "Hg

Humidity: 94%

Dew point: 63 °F

Location of RybnikLocation

Historic Weather in Rybnik — Graph

°F

Rybnik temperature yesterday

Maximum temperature yesterday: 77 °F (at 12:30 PM)
Minimum temperature yesterday: 63 °F (at 4:00 AM)
Average temperature yesterday: 69 °F

Past Weeks' High & Low Weather Summary

 TemperatureHumidityPressure
High88 °F (Jul 20, 3:00 PM)100% (Jul 18, 4:00 AM)30.15 "Hg (Jul 18, 4:00 AM)
Low57 °F (Jul 19, 4:00 AM)33% (Jul 20, 4:00 PM)29.77 "Hg (Jul 29, 7:30 PM)
Average71 °F73%29.94 "Hg
* Reported Jul 16 11:00 PM — Jul 31 11:00 PM, Rybnik, Weather by CustomWeather, © 2014

Note: Actual official high and low records may vary slightly from our data, if they occured in-between our weather recording intervals... More about our weather records

Advertising

Rybnik weather history for previous 24 hours

 ConditionsComfort  
Time TempWeatherWind HumidityBarometerVisibility
11:00 PM
Jul 31
66 °FSprinkles. Passing clouds.5 mph94%29.92 "HgN/A
10:30 PM66 °FSprinkles. Passing clouds.7 mph94%29.92 "HgN/A
10:00 PM66 °FPassing clouds.7 mph94%29.92 "Hg5 mi
9:30 PM68 °FSprinkles. Passing clouds.6 mph94%29.92 "Hg4 mi
9:00 PM68 °FScattered clouds.6 mph94%29.92 "Hg4 mi
8:30 PM68 °FScattered clouds.8 mph94%29.92 "Hg4 mi
8:00 PM70 °FPartly sunny.7 mph94%29.92 "Hg4 mi
7:30 PM70 °FSprinkles. Fog.5 mph94%29.89 "Hg3 mi
7:00 PM70 °FScattered clouds.5 mph94%29.89 "Hg4 mi
6:30 PM70 °FScattered clouds.5 mph94%29.89 "Hg4 mi
6:00 PM70 °FPassing clouds.6 mph94%29.89 "Hg4 mi
5:30 PM70 °FSprinkles. Partly sunny.6 mph94%29.86 "Hg3 mi
5:00 PM70 °FThundershowers. Overcast.3 mph94%29.89 "Hg4 mi
4:30 PM72 °FThunderstorms. Partly sunny.3 mph88%29.89 "Hg4 mi
4:00 PM72 °FThundershowers. Scattered clouds.3 mph88%29.89 "HgN/A
3:30 PM73 °FThunderstorms. Partly sunny.6 mph78%29.86 "HgN/A
3:00 PM75 °FThunderstorms. Partly sunny.9 mph74%29.86 "HgN/A
2:30 PM75 °FThundershowers. Scattered clouds.13 mph74%29.86 "HgN/A
2:00 PM77 °FPassing clouds.14 mph74%29.86 "HgN/A
1:30 PM77 °FPartly sunny.12 mph74%29.86 "HgN/A
1:00 PM77 °FPartly sunny.9 mph69%29.86 "HgN/A
12:30 PM77 °FPartly sunny.8 mph69%29.86 "HgN/A
12:00 PM75 °FPartly sunny.8 mph78%29.86 "HgN/A
11:30 AM75 °FPartly sunny.7 mph74%29.86 "HgN/A
11:00 AM75 °FPartly sunny.5 mph74%29.86 "HgN/A
10:30 AM73 °FPartly sunny.7 mph78%29.86 "HgN/A
10:00 AM72 °FPartly sunny.7 mph83%29.86 "HgN/A
9:30 AM72 °FPartly sunny.7 mph83%29.86 "HgN/A
9:00 AM70 °FPartly sunny.8 mph88%29.86 "HgN/A
8:30 AM70 °FPartly sunny.8 mph88%29.83 "Hg5 mi
8:00 AM70 °FBroken clouds.7 mph88%29.83 "Hg4 mi
7:30 AM68 °FFog.7 mph94%29.83 "Hg3 mi
7:00 AM66 °FFog.7 mph100%29.83 "Hg2 mi
6:30 AM66 °FFog.5 mph94%29.83 "Hg3 mi
6:00 AM63 °FPassing clouds.3 mph100%29.83 "HgN/A
5:30 AM63 °FFog.2 mph94%29.83 "HgN/A
5:00 AM64 °FFog.No wind94%29.83 "HgN/A
4:30 AM63 °FClear.1 mph100%29.80 "Hg10 mi
4:00 AM63 °FClear.1 mph94%29.80 "Hg10 mi
3:30 AM64 °FClear.No wind94%29.80 "Hg10 mi
3:00 AM64 °FClear.No wind88%29.80 "Hg10 mi
2:30 AM64 °FClear.No wind94%29.80 "Hg10 mi
2:00 AM64 °FClear.No wind94%29.80 "Hg10 mi
1:30 AM66 °FClear.No wind88%29.80 "Hg10 mi
1:00 AM68 °FClear.1 mph88%29.80 "Hg10 mi
12:30 AM68 °FClear.No wind88%29.80 "Hg10 mi
12:00 AM68 °FClear.1 mph83%29.80 "Hg10 mi
Weather by CustomWeather, © 2014

See weather overviewHow to use our weather pages